Flag for Japan Weather past 2 weeks in Sendai, Japan

Now
64 °F

Partly sunny.


Feels Like: 64 °F
Forecast: 65 / 76 °F
Wind: 3 mph from Northwest

Location: Sendai Airport

Current Time: Aug 28, 2015 at 7:26:06 AM

Latest Report: Aug 28, 2015 at 6:00 AM


Visibility: N/A

Pressure: 29.95 "Hg

Humidity: 94%

Dew point: 63 °F

Location of SendaiLocation

Historic Weather in Sendai — Graph

°F

Sendai temperature yesterday

Maximum temperature yesterday: 70 °F (at 11:00 AM)
Minimum temperature yesterday: 64 °F (at 6:00 AM)
Average temperature yesterday: 67 °F

Past Weeks' High & Low Weather Summary

 TemperatureHumidityPressure
High90 °F (Aug 18, 11:00 AM)100% (Aug 15, 6:00 AM)29.95 "Hg (Aug 15, 6:00 AM)
Low64 °F (Aug 25, 6:00 AM)43% (Aug 19, 11:00 AM)29.56 "Hg (Aug 22, 10:45 AM)
Average74 °F81%29.78 "Hg
* Reported Aug 12 9:00 PM — Aug 27 9:00 PM, Sendai, Weather by CustomWeather, © 2015

Note: Actual official high and low records may vary slightly from our data, if they occured in-between our weather recording intervals... More about our weather records

Advertising

Sendai weather history for previous 24 hours

 ConditionsComfort  
Time TempWeatherWind HumidityBarometerVisibility
9:00 PM
Thu, Aug 27
66 °FSprinkles. Partly cloudy.6 mph94%29.95 "HgN/A
8:00 PM66 °FPartly cloudy.6 mph94%29.92 "HgN/A
7:00 PM66 °FSprinkles. Passing clouds.2 mph94%29.92 "Hg5 mi
6:00 PM66 °FSprinkles. Broken clouds.5 mph94%29.92 "HgN/A
5:00 PM66 °FSprinkles. Fog.9 mph94%29.92 "Hg3 mi
4:00 PM68 °FSprinkles. Fog.9 mph88%29.89 "Hg3 mi
3:48 PM68 °FSprinkles. Fog.9 mph94%29.89 "Hg2 mi
3:00 PM68 °FSprinkles. Broken clouds.12 mph94%29.89 "Hg4 mi
2:00 PM68 °FDrizzle. Broken clouds.6 mph94%29.89 "Hg5 mi
1:00 PM70 °FDrizzle. Broken clouds.8 mph78%29.89 "HgN/A
12:00 PM68 °FDrizzle. Partly sunny.8 mph88%29.89 "HgN/A
11:00 AM70 °FPartly sunny.7 mph83%29.89 "HgN/A
10:00 AM68 °FSprinkles. Broken clouds.7 mph94%29.89 "HgN/A
9:00 AM66 °FSprinkles. Fog.6 mph94%29.89 "Hg3 mi
8:00 AM66 °FSprinkles. Broken clouds.8 mph94%29.86 "Hg5 mi
7:00 AM64 °FSprinkles. Partly sunny.8 mph100%29.86 "Hg5 mi
Weather by CustomWeather, © 2015

See weather overviewHow to use our weather pages